Retour au catalogue

ONEWEB-0397

ActifCommunicationsPO
NORAD 50477·PAYLOAD·🇬🇧 United Kingdom

Lancé Dec 27, 2021 depuis Baikonur Cosmodrome

Loading…

Prochains Passages (prochaines 24 heures)

TLE

FraisSource: CelesTrak SupGP

Époque: Sep 14, 2026, 14:07 UTC

1 50477C 21132J   26257.58870787  .00003243  00000+0  82359-2 0  2571
2 50477  87.9163 317.6956 0002211 100.9501  11.8677 13.18681045    16

Suivez ONEWEB-0397 en temps réel avec AllMySat

Download on the App Store